Regional Weather Roundup
Issued by NWS

Home | Current Version | Previous Version | Graphics & Text | Print | Product List | Glossary On
Versions: 1 2 3 4 5 6 7 8 9 10 11 12 13 14 15 16 17 18 19 20 21 22 23 24 25 26 27 28 29 30 31 32 33 34 35 36 37 38 39 40 41 42 43 44 45 46 47 48 49 50
000
ASUS43 KMPX 240101
RWRMN
WEATHER ROUNDUP FOR MINNESOTA
NATIONAL WEATHER SERVICE TWIN CITIES/CHANHASSEN MN
800 PM CDT TUE MAY 23 2017


NOTE: "FAIR" INDICATES FEW OR NO CLOUDS BELOW 12,000 FEET WITH NO
SIGNIFICANT WEATHER AND/OR OBSTRUCTIONS TO VISIBILITY. N/A MEANS
CURRENT SKY AND/OR WEATHER CONDITIONS ARE NOT AVAILABLE.

MNZ060>063-068>070-240200-
   Twin Cities Metro

CITY           SKY/WX    TMP DP  RH WIND       PRES   REMARKS
TWIN CITIES    CLOUDY    58  47  66 VRB7      29.80R
ST PAUL        CLOUDY    58  46  64 N12       29.81R
CRYSTAL        CLOUDY    58  43  57 N13G25    29.80R
LAKEVILLE      CLOUDY    55  46  71 NE5       29.80R
EDEN PRAIRIE   LGT RAIN  58  47  66 NE3       29.79S
SOUTH ST PAUL  CLOUDY    58  46  62 N8        29.80R
LAKE ELMO      LGT RAIN  55  46  71 NE15      29.82R
$$
MNZ001>005-007-008-013>017-022>024-027-028-240200-
   Northwest Minnesota

CITY           SKY/WX    TMP DP  RH WIND       PRES   REMARKS
BEMIDJI        CLOUDY    52  43  71 N8        29.93S
HALLOCK        PTCLDY    66  36  32 E3        29.94S
ROSEAU         CLEAR     61  43  51 E6        29.95S
WARROAD        CLEAR     61  45  55 E3        29.95F
CROOKSTON      MOCLDY    57  45  62 E7        29.96S
FOSSTON        CLEAR     54  48  82 NE8       29.96R
DETROIT LAKES  CLOUDY    54  43  66 NE7       29.94S
MOORHEAD       CLOUDY    55  45  67 N10       29.95S
PARK RAPIDS    CLOUDY    54  41  61 N6        29.92R
MAHNOMEN       CLOUDY    52  44  72 NE10      29.94S
$$
MNZ006-009>011-018-025>026-240200-
   North Central Minnesota

CITY           SKY/WX    TMP DP  RH WIND       PRES   REMARKS
BAUDETTE       CLEAR     54  41  61 E5        29.94S
FLAG ISLAND    PTCLDY    55  46  71 S5        29.93S
INTL FALLS     PTCLDY    54  42  64 N5        29.93F
WASKISH        PTCLDY    55  45  67 NE6       29.94F
BIG FORK       PTCLDY    54  43  66 NE7       29.92S
LONGVILLE      MOCLDY    54  45  71 N3        29.90S
GRAND RAPIDS   CLOUDY    53  43  68 NE3       29.92R
CRANE LAKE     PTCLDY    54  43  66 NE3       29.94S
ORR            CLOUDY    54  39  58 CALM      29.90S
COOK           CLOUDY    54  43  66 N5        29.92S
WALKER         CLOUDY    51  43  74 N6        29.92R
$$
MNZ012-019>021-037-240200-
   Northeast Minnesota

CITY           SKY/WX    TMP DP  RH WIND       PRES   REMARKS
DULUTH         LGT RAIN  49  46  90 E12       29.89R
ELY            CLOUDY    52  43  71 CALM      29.90S
HIBBING        CLOUDY    52  43  71 N8        29.90R
EVELETH        CLOUDY    53  41  64 NE7G17    29.91R
DULUTH HARBOR  CLOUDY    45  45 100 NE12      29.91S
TWO HARBORS    CLOUDY    50  46  87 NE6       29.89S
SILVER BAY     DRIZZLE   48  46  93 CALM      29.89S
GRAND MARAIS     N/A     46  43  89 CALM      29.91R
G MARAIS ARPRT CLOUDY    48  39  71 N6        29.91R
$$
MNZ029>031-032-039>041-046>048-054>057-064-240200-
   West Central Minnesota

CITY           SKY/WX    TMP DP  RH WIND       PRES   REMARKS
FERGUS FALLS   CLEAR     54  45  71 NE9G17    29.91R
WHEATON        PTCLDY    55  45  67 N15G22    29.93R
MORRIS         CLEAR     54  46  76 N12       29.89R
ALEXANDRIA     MOCLDY    53  46  77 N15       29.90R
ELBOW LAKE     MOCLDY    54  47  77 N13       29.91R
WADENA         CLOUDY    52  45  76 N13       29.91R
GLENWOOD       PTCLDY    54  46  76 N14       29.88R
APPLETON       MOCLDY    57  46  67 N13       29.88R
BENSON         MOCLDY    59  43  55 NE8       29.88S
ORTONVILLE     MOCLDY    55  46  71 N14       29.89R
MADISON        MOCLDY    57  50  77 N9        29.88S
WILLMAR        FAIR      57  48  72 N7        29.87R
$$
MNZ033>034-036-042>043-049>051-058-059-240200-
   Central Minnesota

CITY           SKY/WX    TMP DP  RH WIND       PRES   REMARKS
ST CLOUD       MOCLDY    56  46  69 N7        29.84S
SAUK CENTRE    MOCLDY    55  43  64 N10       29.87R
PAYNESVILLE    CLEAR     54  45  71 N3        29.86R
AITKIN         CLOUDY    52  46  82 NE8       29.87S
PINE RIVER     MOCLDY    54  46  76 N8        29.93S
BRAINERD       LGT RAIN  52  49  89 N10       29.89R FOG
STAPLES        CLOUDY    52  45  76 NE6       29.90R
LONG PRAIRIE   CLOUDY    54  45  71 NW15      29.88R
LITTLE FALLS   LGT RAIN  52  45  76 CALM      29.88R
LITCHFIELD     PTCLDY    57  46  67 N8        29.85R
BUFFALO        CLEAR     57  44  62 N7        29.83S
MAPLE LAKE     CLEAR     57  48  73 N8        29.85R
HUTCHINSON     MOCLDY    56  47  72 N7        29.84R
$$
MNZ037-044-045-052-053-240200-
   East Central Minnesota

CITY           SKY/WX    TMP DP  RH WIND       PRES   REMARKS
PRINCETON      CLEAR     57  46  67 N6        29.84S
MORA           PTCLDY    55  41  58 N6        29.86R
CAMBRIDGE      CLOUDY    59  46  63 NE6       29.82R
RUSH CITY      PTCLDY    55  46  70 NE6       29.84R
MOOSE LAKE     CLOUDY    50  43  76 NE6       29.87R
HINCKLEY       FAIR      54  45  71 N15       29.85R
CLOQUET        CLOUDY    48  43  81 E7        29.89S
MCGREGOR       CLOUDY    52  48  87 NE5       29.89R
$$
MNZ071>073-080-081-089-090-097-098-240200-
   Southwest Minnesota

CITY           SKY/WX    TMP DP  RH WIND       PRES   REMARKS
MONTEVIDEO     RAIN      57  48  72 E9G16     29.87R
CANBY          CLEAR     55  47  74 N6        29.89R
MARSHALL       MOCLDY    53  46  77 NE10      29.86S
REDWOOD FALLS  MOCLDY    58  44  60 N8        29.83S
OLIVIA         PTCLDY    54  45  71 N10       29.84S
PIPESTONE      CLEAR     54  45  71 N9G17     29.86R
WINDOM         PTCLDY    54  46  76 N7        29.83S
WORTHINGTON    LGT RAIN  50  47  89 N8        29.85R
JACKSON        MOCLDY    52  45  76 CALM      29.83S
TRACY          PTCLDY    55  47  74 N14       29.86R
SLAYTON        MOCLDY    53  47  82 NE8       29.85S
$$
MNZ065>067-074>077-082>085-091>093-240200-
   South Central Minnesota

CITY           SKY/WX    TMP DP  RH WIND       PRES   REMARKS
MANKATO        CLOUDY    54  50  86 N6        29.81R
NEW ULM        CLOUDY    52  48  87 NW6       29.82S
ST JAMES       CLOUDY    52  48  87 NW7       29.83S
FAIRMONT       CLOUDY    53  47  79 N10       29.81R
GLENCOE        MOCLDY    57  51  78 N10       29.81S
FARIBAULT      CLOUDY    55  48  76 N7        29.80R
OWATONNA       CLOUDY    52  48  87 N5        29.79S
WASECA         CLOUDY    52  46  82 CALM      29.80S
ALBERT LEA     LGT RAIN  52  52 100 N7        29.78S
$$
MNZ078>079-086>088-094>096-240200-
   Southeast Minnesota

CITY           SKY/WX    TMP DP  RH WIND       PRES   REMARKS
ROCHESTER      CLOUDY    51  49  92 N10       29.77S
RED WING       CLOUDY    55  46  71 N3        29.77S
STANTON        CLOUDY    57  49  74 NE8       29.78S
DODGE CENTER   CLOUDY    52  48  87 N8        29.78S
WINONA         CLOUDY    55  46  71 N3        29.75R
AUSTIN         DRIZZLE   52  46  82 N5        29.76S
PRESTON        CLOUDY    51  48  89 N7G16     29.75S
$$
ABBREVIATIONS USED IN REMARKS
   TC - TEMPERATURES IN CELSIUS
  WCI - WIND CHILL INDEX
   HX - HEAT INDEX
  VSB - VISIBILITY
$$




USA.gov is the U.S. government's official web portal to all federal, state and local government web resources and services.